Regional Weather Roundup
Issued by NWS

Home | Current Version | Previous Version | Graphics & Text | Print | Product List | Glossary On
Versions: 1 2 3 4 5 6 7 8 9 10 11 12 13 14 15 16 17 18 19 20 21 22 23 24 25 26 27 28 29 30 31 32 33 34 35 36 37 38 39 40 41 42 43 44 45 46 47 48 49 50
000
ASUS45 KSLC 261210
RWRUT

UTAH REGIONAL WEATHER ROUNDUP
NATIONAL WEATHER SERVICE SALT LAKE CITY UT
500 AM MST WED NOV 26 2014

UTZ001>011-023>025-261300-

NORTHERN UTAH

CITY           SKY/WX    TMP DP  RH WIND       PRES   REMARKS
HILL AFB       PTCLDY    40  31  71 E5        30.35R
LOGAN          MOCLDY    45  34  65 SW5       30.30R
OGDEN          PTCLDY    42  32  67 CALM      30.34R
PROVO AIRPORT  CLEAR     28  25  86 CALM      30.37S
SALT LAKE CITY PTCLDY    37  28  70 S5        30.34R WCI  33
VERNAL         CLEAR     28  22  78 W6        30.24S WCI  22
WENDOVER       PTCLDY    41  28  60 CALM      30.35S
HEBER CITY     PTCLDY    30  28  93 CALM      30.35R
WEST JORDAN    CLEAR     37  34  87 SW7       30.35S WCI  32

$$

UTZ012>022-026-027-261300-

SOUTHERN/CENTRAL UTAH

CITY           SKY/WX    TMP DP  RH WIND       PRES   REMARKS
BLANDING       PTCLDY    33  19  56 CALM      30.41S
BRYCE CANYON   CLEAR     18  14  84 W5        30.44S WCI  11
CEDAR CITY     PTCLDY    26  20  77 SE3       30.40S
DELTA          PTCLDY    27  23  84 E5        30.38F WCI  22
MILFORD        PTCLDY    25  15  66 SW9       30.39F WCI  15
MOAB/CYNLANDS  CLEAR     24   8  50 N3        30.33R
PRICE          CLEAR     29  18  63 CALM      30.31S
ST GEORGE      SUNNY     34   9  35 CALM      30.44F
KANAB          PTCLDY    23   9  54 N5        30.46S WCI  17

$$

REGIONAL REPORTS     COLORADO/ARIZONA

CITY           SKY/WX    TMP DP  RH WIND       PRES   REMARKS
CRAIG, CO      CLOUDY    31  26  82 SE3       30.25R
GRAND JUNCTION CLEAR     23  18  81 E5        30.33S WCI  17
RIFLE          CLOUDY    28  23  81 S3        30.34S
MONTROSE       CLOUDY    32  25  75 CALM      30.35R
CORTEZ         CLEAR     20  14  77 NE9       30.36R WCI   9
PAGE, AZ       CLEAR     37  10  32 CALM      30.38S
GRAND CANYON   MOCLDY    19   7  59 CALM      30.42F
KINGMAN        CLEAR     39   9  29 E8        30.37S WCI  33
FLAGSTAFF      CLEAR     22  12  65 CALM      30.40S

$$

REGIONAL REPORTS    NEVADA/IDAHO/WYOMING

CITY           SKY/WX    TMP DP  RH WIND       PRES   REMARKS
LAS VEGAS, NV  CLEAR     44  13  28 SW6       30.33S
ELY            CLEAR     21  32 100 S10       30.46S WCI  10
ELKO           CLEAR     25  23  92 S5        30.42F WCI  19
POCATELLO, ID  CLEAR     44  37  76 SW18G26   30.28R
BURLEY         PTCLDY    44  33  65 W12       30.29R
EVANSTON, WY   PTCLDY    35  30  82 SW20      30.28S WCI  24
ROCK SPRINGS   CLOUDY    36  30  79 W24G31    30.17R WCI  24

$$



USA.gov is the U.S. government's official web portal to all federal, state and local government web resources and services.